Temp
-12 -12 -12 -12 -12 -12 -12 -12 -12 -12 -12 -12 -12 -12 -12 -12 -12 -12 -12 -13 -13 -13 -13 -13 -13 -13 -13 -13 -13 -13 -13 -13 -13 -13 -13 -13 -13 -13 -12 -12 -12 -12 -12 -12 -12 -12 -12 -12 -12 -12 -12 -12 -12 -12 -12 -12 -12 -12 -12 -12 -13 -13 -13
-12 -12 -12 -12 -12 -12 -12 -12 -12 -12 -12 -12 -12 -12 -12 -12 -13 -13 -13 -13 -13 -13 -13 -13 -13 -13 -13 -13 -13 -13 -13 -13 -13 -13 -13 -13 -13 -13 -12 -12 -12 -12 -12 -12 -12 -12 -12 -12 -12 -12 -12 -12 -12 -12 -12 -12 -12 -13 -13 -13 -13 -13 -13
-12 -12 -12 -12 -12 -12 -12 -12 -12 -12 -12 -12 -12 -12 -12 -12 -12 -12 -12 -12 -12 -13 -13 -13 -13 -13 -13 -12 -12 -12 -13 -13 -13 -13 -13 -13 -13 -13 -12 -12 -12 -12 -12 -12 -12 -12 -12 -12 -12 -12 -12 -12 -12 -12 -12 -12 -12 -12 -12 -13 -13 -13 -13
-12 -12 -12 -12 -12 -12 -12 -12 -12 -12 -12 -12 -12 -12 -12 -12 -12 -12 -12 -12 -12 -12 -13 -13 -13 -13 -13 -13 -12 -12 -13 -13 -13 -13 -13 -13 -13 -13 -12 -12 -12 -12 -12 -12 -12 -12 -12 -12 -12 -13 -13 -12 -12 -12 -12 -12 -12 -12 -13 -13 -13 -13 -13
-12 -12 -12 -12 -12 -12 -12 -12 -12 -12 -12 -12 -12 -12 -12 -12 -12 -12 -12 -12 -12 -12 -13 -13 -13 -13 -13 -13 -12 -12 -13 -13 -13 -13 -13 -13 -13 -13 -13 -13 -12 -12 -12 -12 -12 -12 -12 -12 -12 -13 -12 -12 -12 -12 -12 -12 -13 -13 -13 -13 -13 -13 -13
-12 -12 -12 -12 -12 -12 -12 -12 -12 -12 -12 -12 -12 -12 -12 -12 -12 -12 -12 -12 -12 -13 -13 -13 -13 -13 -13 -13 -13 -13 -13 -13 -13 -13 -13 -13 -13 -13 -13 -12 -12 -12 -12 -12 -12 -12 -12 -12 -12 -13 -12 -12 -12 -12 -12 -12 -13 -13 -13 -13 -13 -13 -13
-12 -12 -12 -12 -12 -12 -12 -12 -12 -12 -12 -12 -12 -12 -12 -12 -12 -12 -12 -12 -13 -13 -13 -13 -13 -13 -13 -13 -13 -13 -13 -13 -13 -13 -13 -13 -13 -13 -13 -12 -12 -12 -12 -12 -12 -12 -12 -12 -12 -13 -12 -12 -13 -13 -12 -13 -13 -13 -13 -13 -13 -13 -13
-13 -13 -13 -13 -13 -13 -12 -12 -12 -12 -12 -12 -12 -12 -12 -12 -12 -12 -13 -13 -13 -13 -13 -13 -13 -13 -13 -13 -13 -13 -13 -13 -13 -13 -13 -13 -13 -13 -13 -12 -12 -12 -12 -12 -12 -12 -12 -12 -13 -13 -12 -13 -13 -13 -13 -13 -13 -13 -13 -13 -13 -13 -13
-13 -13 -13 -13 -13 -13 -13 -13 -13 -12 -12 -12 -13 -13 -13 -13 -13 -13 -13 -13 -13 -13 -13 -13 -13 -13 -13 -13 -13 -13 -13 -13 -13 -13 -13 -13 -13 -13 -13 -13 -12 -12 -12 -12 -12 -12 -12 -12 -13 -13 -13 -13 -13 -13 -13 -13 -13 -13 -13 -13 -13 -13 -13
-13 -13 -13 -13 -13 -13 -13 -13 -13 -13 -13 -13 -13 -13 -13 -13 -13 -13 -13 -13 -13 -13 -13 -13 -13 -13 -13 -13 -13 -13 -13 -13 -13 -14 -13 -13 -13 -13 -13 -13 -13 -12 -12 -12 -12 -12 -12 -12 -12 -13 -13 -13 -13 -13 -13 -13 -13 -13 -13 -13 -13 -13 -13
-13 -13 -13 -13 -13 -13 -13 -13 -13 -13 -13 -13 -13 -13 -13 -13 -13 -13 -13 -13 -13 -13 -13 -13 -13 -13 -13 -13 -13 -14 -14 -14 -14 -14 -14 -13 -13 -13 -13 -13 -13 -12 -12 -12 -12 -12 -12 -12 -12 -13 -13 -13 -13 -13 -13 -13 -13 -13 -13 -13 -13 -13 -13
-13 -13 -13 -13 -13 -13 -13 -13 -13 -13 -13 -13 -13 -13 -13 -13 -13 -13 -13 -13 -13 -13 -13 -13 -13 -13 -13 -13 -13 -14 -14 -14 -14 -14 -14 -14 -13 -13 -13 -13 -13 -12 -12 -12 -12 -12 -12 -12 -12 -13 -13 -13 -13 -13 -13 -13 -13 -13 -13 -13 -13 -13 -13
-13 -13 -13 -13 -13 -13 -13 -13 -13 -13 -13 -13 -13 -13 -13 -13 -13 -13 -13 -13 -13 -13 -13 -13 -13 -13 -13 -13 -14 -14 -14 -14 -14 -14 -14 -14 -13 -13 -13 -13 -13 -13 -12 -12 -12 -12 -12 -12 -13 -13 -13 -13 -13 -13 -13 -13 -13 -13 -13 -13 -13 -13 -13
-14 -13 -13 -13 -13 -13 -13 -13 -13 -13 -13 -13 -13 -13 -13 -13 -13 -13 -13 -13 -13 -13 -13 -13 -13 -13 -13 -14 -14 -14 -14 -14 -14 -14 -14 -14 -13 -13 -13 -13 -13 -13 -13 -13 -12 -12 -12 -12 -13 -13 -13 -13 -13 -13 -13 -13 -13 -14 -14 -13 -13 -14 -13
-14 -14 -14 -13 -13 -13 -13 -13 -13 -13 -13 -14 -14 -14 -14 -13 -13 -13 -13 -13 -13 -13 -13 -13 -13 -13 -13 -14 -14 -14 -14 -14 -14 -14 -14 -14 -13 -13 -13 -13 -13 -13 -13 -13 -13 -13 -13 -13 -13 -13 -13 -13 -13 -13 -13 -13 -13 -13 -13 -14 -14 -14 -14
-14 -14 -14 -13 -13 -13 -13 -13 -13 -14 -14 -14 -14 -14 -14 -13 -13 -13 -13 -13 -13 -13 -13 -13 -13 -13 -13 -13 -14 -14 -14 -14 -14 -14 -14 -14 -14 -13 -13 -13 -13 -13 -13 -13 -13 -13 -13 -13 -13 -13 -13 -13 -13 -13 -13 -13 -13 -13 -14 -14 -14 -14 -14
-14 -14 -14 -13 -13 -13 -13 -14 -14 -14 -14 -14 -14 -14 -14 -14 -13 -13 -13 -13 -13 -13 -13 -13 -13 -13 -13 -13 -13 -14 -14 -14 -14 -14 -14 -14 -14 -13 -13 -13 -13 -13 -13 -13 -13 -13 -13 -13 -13 -13 -13 -13 -13 -13 -13 -13 -13 -13 -14 -14 -14 -14 -14
-14 -14 -14 -13 -13 -13 -14 -14 -14 -14 -14 -14 -14 -14 -14 -14 -14 -14 -14 -13 -13 -13 -13 -13 -13 -13 -13 -13 -13 -13 -14 -14 -14 -14 -14 -14 -14 -13 -13 -13 -13 -13 -13 -13 -13 -13 -13 -13 -13 -13 -13 -13 -13 -13 -13 -13 -13 -14 -14 -14 -14 -14 -14
-14 -14 -14 -13 -14 -14 -14 -14 -14 -14 -14 -14 -14 -14 -14 -14 -14 -14 -14 -14 -14 -14 -13 -13 -13 -13 -13 -14 -13 -13 -13 -14 -14 -14 -14 -14 -14 -13 -13 -13 -13 -13 -13 -13 -13 -13 -13 -13 -13 -13 -13 -13 -13 -13 -13 -13 -13 -14 -14 -14 -14 -14 -14
-14 -14 -14 -14 -14 -14 -14 -14 -14 -15 -15 -15 -14 -14 -14 -14 -14 -14 -14 -14 -14 -14 -14 -14 -13 -13 -13 -13 -14 -13 -13 -14 -14 -14 -14 -14 -14 -13 -13 -13 -13 -13 -13 -13 -13 -13 -13 -13 -13 -13 -13 -13 -13 -13 -13 -13 -13 -14 -14 -14 -14 -14 -14
-14 -14 -14 -14 -14 -14 -14 -15 -15 -15 -15 -15 -15 -15 -14 -14 -14 -14 -14 -14 -14 -14 -14 -14 -14 -14 -13 -13 -14 -14 -13 -14 -14 -14 -14 -14 -14 -13 -13 -13 -13 -13 -14 -14 -14 -13 -13 -13 -13 -13 -13 -13 -13 -13 -13 -13 -13 -14 -14 -14 -14 -14 -14
-15 -14 -14 -14 -15 -15 -15 -15 -15 -15 -15 -15 -15 -15 -15 -14 -14 -14 -14 -14 -14 -14 -14 -14 -14 -14 -14 -13 -14 -14 -14 -14 -14 -14 -14 -14 -14 -14 -14 -14 -14 -14 -14 -14 -14 -14 -13 -13 -13 -14 -14 -14 -14 -14 -14 -14 -14 -14 -14 -14 -14 -14 -14
-15 -15 -15 -15 -15 -15 -15 -15 -15 -15 -15 -15 -15 -15 -15 -15 -15 -14 -14 -14 -14 -14 -14 -14 -14 -14 -14 -14 -14 -14 -14 -14 -14 -14 -14 -14 -14 -14 -14 -14 -14 -14 -14 -14 -14 -14 -14 -14 -14 -14 -14 -14 -14 -14 -14 -14 -14 -14 -14 -14 -14 -14 -14
-15 -15 -15 -15 -15 -15 -15 -16 -16 -16 -15 -15 -15 -15 -15 -15 -15 -15 -14 -14 -14 -14 -14 -14 -14 -14 -14 -14 -14 -14 -14 -14 -14 -14 -14 -14 -14 -14 -14 -14 -14 -14 -14 -14 -14 -14 -14 -14 -14 -14 -14 -14 -14 -14 -14 -14 -14 -14 -14 -14 -14 -14 -14
-16 -16 -16 -16 -16 -16 -16 -16 -16 -16 -16 -16 -15 -15 -15 -15 -15 -15 -15 -15 -15 -14 -14 -14 -14 -14 -14 -14 -14 -14 -14 -14 -14 -14 -14 -14 -14 -14 -14 -14 -14 -14 -14 -14 -14 -14 -14 -14 -14 -14 -14 -14 -14 -14 -14 -14 -14 -14 -14 -14 -14 -14 -14
-16 -16 -16 -16 -16 -16 -16 -16 -16 -16 -16 -16 -16 -15 -15 -15 -15 -15 -15 -15 -15 -15 -15 -14 -14 -14 -14 -14 -14 -14 -14 -14 -14 -14 -14 -14 -14 -14 -14 -14 -14 -14 -14 -14 -14 -14 -14 -14 -14 -14 -14 -14 -14 -14 -14 -14 -14 -14 -14 -14 -14 -14 -14
-16 -16 -16 -16 -16 -16 -16 -16 -16 -16 -16 -16 -16 -15 -15 -15 -15 -15 -15 -15 -15 -15 -15 -15 -14 -14 -14 -14 -14 -15 -14 -14 -14 -14 -14 -14 -14 -15 -14 -14 -14 -14 -14 -14 -14 -14 -14 -14 -14 -14 -14 -14 -14 -14 -14 -14 -14 -14 -14 -14 -14 -14 -14
-17 -17 -17 -17 -16 -16 -16 -16 -16 -16 -16 -16 -16 -16 -15 -15 -15 -15 -15 -15 -15 -15 -15 -15 -15 -15 -15 -15 -14 -14 -14 -14 -14 -14 -14 -14 -14 -14 -14 -14 -14 -14 -14 -14 -14 -14 -14 -14 -14 -14 -14 -14 -14 -14 -14 -14 -14 -14 -14 -14 -14 -14 -15
-17 -17 -17 -17 -17 -17 -17 -17 -16 -16 -16 -16 -16 -16 -16 -16 -16 -16 -15 -15 -15 -15 -15 -15 -15 -15 -15 -15 -15 -15 -14 -14 -14 -14 -14 -14 -14 -14 -15 -15 -15 -14 -15 -15 -15 -14 -14 -14 -14 -14 -14 -14 -14 -14 -14 -14 -14 -15 -15 -14 -14 -14 -15
-17 -17 -17 -17 -17 -17 -17 -17 -17 -17 -16 -16 -16 -16 -16 -16 -16 -16 -16 -16 -15 -15 -15 -15 -15 -15 -15 -15 -15 -15 -15 -15 -15 -15 -14 -14 -14 -15 -15 -15 -15 -15 -15 -15 -15 -15 -15 -15 -14 -14 -14 -14 -14 -14 -14 -15 -15 -15 -15 -15 -15 -15 -15
-17 -17 -17 -17 -17 -17 -17 -17 -17 -17 -17 -16 -16 -16 -16 -16 -16 -16 -16 -16 -16 -16 -15 -15 -15 -15 -15 -15 -15 -15 -15 -15 -15 -15 -15 -14 -14 -15 -15 -15 -15 -15 -15 -15 -15 -15 -15 -15 -15 -15 -14 -15 -15 -14 -14 -15 -15 -15 -15 -15 -15 -15 -15
-17 -17 -17 -17 -17 -17 -17 -17 -17 -17 -17 -16 -16 -16 -16 -16 -16 -16 -16 -16 -16 -16 -16 -15 -15 -15 -15 -15 -15 -15 -15 -15 -15 -15 -15 -15 -15 -15 -15 -15 -15 -15 -15 -15 -15 -15 -15 -15 -15 -15 -15 -15 -15 -15 -15 -15 -15 -15 -15 -15 -15 -15 -15
-17 -17 -17 -17 -17 -17 -17 -17 -17 -17 -17 -17 -16 -16 -16 -16 -16 -16 -16 -16 -16 -16 -16 -16 -16 -15 -15 -15 -15 -15 -15 -15 -15 -15 -15 -15 -15 -15 -15 -15 -15 -15 -15 -15 -15 -15 -15 -15 -15 -15 -15 -15 -15 -15 -15 -15 -15 -15 -15 -15 -15 -16 -16
-17 -17 -17 -17 -17 -17 -17 -17 -17 -17 -17 -17 -17 -16 -16 -16 -16 -16 -16 -16 -16 -16 -16 -16 -16 -16 -16 -16 -16 -15 -15 -16 -15 -15 -15 -15 -15 -15 -15 -15 -15 -15 -15 -15 -15 -15 -15 -15 -15 -15 -15 -15 -15 -15 -15 -15 -15 -15 -15 -16 -16 -16 -16
-17 -17 -17 -17 -17 -17 -17 -17 -17 -17 -17 -17 -17 -17 -16 -16 -16 -16 -16 -16 -16 -16 -16 -16 -16 -16 -16 -16 -16 -16 -16 -16 -16 -16 -16 -16 -16 -16 -16 -16 -16 -16 -16 -16 -16 -16 -16 -16 -16 -16 -15 -16 -16 -16 -15 -15 -16 -16 -16 -16 -16 -16 -16
-17 -17 -17 -17 -17 -17 -17 -17 -17 -17 -17 -17 -17 -17 -17 -17 -17 -17 -17 -17 -17 -17 -17 -17 -16 -16 -16 -16 -16 -16 -16 -16 -16 -16 -16 -16 -16 -16 -16 -16 -16 -16 -16 -16 -16 -16 -16 -16 -16 -16 -16 -16 -16 -16 -16 -16 -16 -16 -16 -16 -16 -16 -16
-17 -17 -17 -17 -17 -17 -17 -17 -17 -17 -17 -17 -17 -17 -17 -17 -17 -17 -17 -17 -17 -17 -17 -17 -17 -17 -17 -16 -16 -16 -16 -16 -16 -16 -16 -16 -16 -16 -16 -16 -16 -16 -16 -16 -16 -16 -16 -16 -16 -16 -16 -16 -16 -16 -16 -16 -16 -16 -16 -16 -16 -16 -16
Height
5805 5805 5804 5803 5802 5801 5801 5801 5801 5800 5799 5798 5797 5796 5795 5793 5791 5790 5788 5786 5785 5783 5781 5780 5778 5776 5775 5773 5771 5769 5768 5767 5766 5766 5765 5765 5764 5764 5765 5766 5766 5766 5768 5769 5770 5770 5771 5772 5774 5776 5777 5779 5780 5781 5782 5783 5784 5785 5786 5786 5787 5787 5787
5803 5802 5801 5800 5800 5799 5799 5798 5798 5797 5796 5795 5794 5793 5792 5791 5789 5787 5786 5784 5782 5779 5776 5774 5772 5771 5770 5768 5766 5765 5763 5763 5762 5762 5762 5761 5761 5761 5761 5762 5763 5763 5764 5766 5767 5768 5768 5769 5771 5773 5774 5776 5778 5778 5778 5780 5781 5782 5783 5784 5785 5785 5786
5801 5800 5799 5798 5797 5796 5796 5796 5796 5795 5794 5792 5791 5791 5790 5788 5787 5785 5784 5782 5779 5776 5773 5771 5768 5766 5764 5763 5761 5760 5759 5758 5758 5757 5758 5758 5758 5757 5757 5758 5759 5759 5761 5762 5764 5765 5766 5766 5768 5769 5771 5773 5774 5774 5775 5776 5778 5779 5780 5782 5783 5783 5784
5799 5798 5797 5796 5795 5794 5793 5793 5793 5793 5792 5790 5789 5788 5786 5785 5784 5783 5781 5780 5777 5774 5771 5768 5765 5762 5760 5758 5756 5755 5754 5753 5753 5753 5754 5754 5754 5754 5753 5754 5755 5756 5757 5759 5760 5762 5762 5763 5764 5766 5767 5769 5770 5771 5773 5774 5775 5777 5778 5779 5780 5781 5781
5796 5795 5794 5793 5792 5792 5791 5790 5790 5789 5789 5788 5787 5785 5784 5782 5781 5780 5778 5776 5774 5771 5768 5765 5762 5758 5755 5753 5751 5750 5749 5748 5748 5749 5750 5750 5750 5750 5749 5749 5750 5752 5753 5755 5756 5758 5759 5760 5761 5762 5763 5765 5767 5769 5770 5771 5772 5774 5775 5776 5777 5778 5779
5793 5792 5792 5791 5790 5789 5788 5787 5787 5786 5786 5785 5784 5782 5781 5779 5778 5776 5774 5772 5770 5767 5764 5761 5758 5754 5751 5748 5747 5745 5744 5744 5744 5744 5745 5746 5746 5746 5746 5746 5746 5747 5748 5750 5752 5754 5756 5756 5757 5759 5761 5763 5765 5766 5767 5769 5770 5771 5772 5774 5775 5775 5777
5791 5790 5789 5788 5787 5786 5786 5785 5784 5783 5783 5782 5781 5779 5778 5776 5775 5773 5771 5769 5766 5763 5760 5757 5753 5750 5747 5744 5742 5740 5739 5739 5739 5739 5740 5742 5742 5742 5743 5742 5743 5744 5744 5745 5748 5750 5752 5753 5755 5756 5758 5760 5762 5763 5764 5766 5767 5769 5770 5771 5772 5773 5774
5789 5788 5787 5786 5785 5784 5783 5782 5781 5781 5780 5779 5778 5776 5775 5774 5772 5770 5768 5766 5763 5760 5757 5753 5749 5746 5743 5740 5737 5736 5735 5734 5735 5736 5736 5738 5739 5739 5740 5740 5740 5741 5741 5742 5745 5747 5748 5750 5752 5753 5755 5757 5759 5760 5761 5763 5765 5766 5767 5768 5769 5770 5771
5786 5785 5784 5783 5782 5781 5781 5780 5779 5778 5777 5776 5775 5774 5772 5771 5770 5767 5765 5762 5760 5757 5753 5749 5745 5742 5739 5736 5733 5731 5731 5731 5732 5732 5733 5734 5736 5737 5738 5738 5737 5738 5738 5739 5741 5743 5745 5747 5749 5750 5752 5754 5756 5757 5758 5760 5762 5763 5764 5765 5766 5767 5768
5784 5783 5782 5781 5780 5779 5778 5777 5777 5776 5775 5774 5773 5771 5770 5768 5766 5764 5762 5759 5756 5754 5750 5746 5742 5738 5735 5733 5730 5728 5728 5728 5729 5729 5730 5731 5733 5735 5736 5735 5735 5735 5735 5737 5739 5740 5742 5744 5746 5748 5750 5751 5752 5754 5756 5758 5759 5759 5761 5762 5763 5764 5764
5781 5781 5780 5779 5778 5777 5776 5775 5774 5773 5772 5771 5770 5769 5768 5766 5764 5761 5759 5756 5754 5751 5747 5743 5739 5736 5733 5730 5728 5726 5725 5725 5726 5726 5727 5729 5731 5732 5733 5733 5732 5732 5733 5734 5736 5738 5740 5742 5744 5745 5747 5748 5749 5751 5753 5755 5755 5756 5758 5760 5761 5760 5761
5779 5779 5778 5777 5776 5774 5773 5772 5772 5771 5770 5768 5767 5766 5765 5763 5761 5759 5756 5754 5751 5748 5744 5741 5736 5733 5730 5728 5726 5724 5723 5723 5723 5724 5725 5727 5728 5729 5730 5730 5730 5730 5731 5733 5734 5736 5738 5740 5741 5743 5745 5746 5747 5748 5750 5751 5752 5754 5756 5758 5757 5757 5758
5777 5776 5775 5774 5773 5772 5771 5770 5769 5768 5767 5766 5764 5763 5762 5760 5759 5757 5754 5751 5749 5745 5742 5738 5734 5731 5728 5726 5725 5723 5722 5722 5722 5722 5723 5724 5726 5727 5728 5729 5729 5729 5730 5731 5732 5734 5736 5738 5739 5741 5742 5743 5744 5745 5746 5748 5749 5751 5753 5754 5753 5753 5755
5774 5774 5773 5772 5771 5769 5768 5767 5766 5765 5764 5763 5762 5760 5759 5758 5756 5754 5752 5749 5747 5744 5740 5736 5733 5730 5727 5725 5724 5723 5722 5721 5721 5721 5721 5722 5724 5725 5726 5727 5728 5728 5728 5730 5731 5732 5734 5735 5737 5738 5739 5740 5741 5742 5744 5745 5746 5748 5749 5750 5749 5750 5752
5772 5771 5770 5769 5768 5767 5766 5765 5764 5762 5761 5760 5759 5758 5757 5755 5754 5752 5750 5747 5745 5742 5739 5735 5732 5729 5727 5725 5724 5723 5722 5721 5721 5721 5721 5721 5722 5723 5724 5725 5726 5726 5727 5728 5729 5731 5732 5733 5734 5735 5737 5738 5739 5740 5741 5741 5742 5744 5745 5746 5746 5747 5749
5769 5768 5767 5766 5765 5764 5762 5761 5761 5760 5759 5757 5757 5756 5755 5753 5751 5749 5747 5745 5743 5740 5737 5734 5731 5729 5726 5725 5724 5723 5722 5722 5721 5720 5720 5720 5721 5721 5722 5723 5724 5725 5725 5726 5727 5728 5729 5730 5731 5732 5734 5736 5736 5737 5738 5738 5739 5740 5741 5743 5743 5744 5746
5766 5765 5764 5763 5762 5760 5759 5759 5758 5757 5756 5755 5754 5753 5752 5751 5749 5747 5745 5743 5741 5739 5736 5733 5730 5728 5726 5725 5724 5723 5722 5722 5721 5720 5719 5719 5719 5719 5720 5722 5723 5723 5723 5723 5724 5725 5726 5728 5729 5730 5731 5733 5733 5734 5735 5735 5736 5737 5738 5740 5740 5741 5743
5763 5762 5761 5760 5759 5757 5756 5756 5755 5754 5753 5752 5751 5750 5749 5748 5746 5745 5743 5741 5739 5737 5734 5732 5729 5727 5725 5723 5723 5722 5721 5721 5720 5719 5718 5718 5718 5718 5718 5719 5720 5721 5721 5721 5721 5722 5723 5725 5726 5727 5729 5730 5731 5731 5732 5733 5734 5734 5735 5736 5737 5738 5740
5759 5758 5758 5756 5755 5754 5753 5753 5752 5751 5750 5749 5748 5748 5747 5745 5744 5742 5740 5739 5737 5735 5732 5730 5727 5725 5723 5722 5720 5720 5719 5718 5718 5717 5717 5717 5716 5716 5716 5717 5717 5718 5718 5718 5719 5719 5720 5722 5723 5725 5726 5727 5728 5729 5730 5730 5731 5732 5733 5733 5734 5735 5736
5756 5755 5754 5753 5752 5751 5750 5750 5749 5748 5747 5747 5746 5745 5744 5743 5741 5740 5738 5736 5735 5733 5731 5728 5726 5724 5722 5720 5718 5718 5717 5716 5715 5715 5715 5714 5714 5714 5714 5714 5714 5715 5715 5715 5716 5716 5717 5719 5720 5721 5723 5724 5725 5726 5727 5728 5728 5729 5730 5730 5731 5732 5733
5752 5751 5750 5749 5749 5748 5747 5747 5746 5746 5745 5744 5743 5743 5742 5740 5739 5737 5736 5734 5732 5730 5729 5727 5724 5723 5720 5718 5717 5715 5715 5714 5713 5713 5713 5712 5712 5711 5712 5712 5712 5712 5712 5712 5713 5714 5714 5716 5717 5719 5720 5721 5722 5723 5723 5724 5725 5726 5726 5727 5728 5728 5729
5749 5748 5747 5746 5745 5745 5744 5744 5743 5743 5742 5742 5741 5740 5739 5738 5736 5735 5733 5732 5730 5728 5727 5725 5723 5721 5719 5717 5715 5714 5713 5712 5712 5711 5711 5711 5710 5709 5709 5709 5709 5709 5709 5710 5710 5711 5712 5713 5715 5716 5717 5717 5718 5719 5720 5721 5722 5723 5723 5724 5725 5725 5726
5745 5744 5743 5743 5742 5742 5741 5741 5740 5740 5739 5739 5738 5737 5736 5735 5734 5733 5731 5730 5728 5726 5725 5723 5721 5719 5717 5716 5714 5713 5712 5711 5710 5710 5709 5709 5708 5708 5707 5707 5707 5707 5707 5707 5708 5709 5710 5711 5712 5713 5713 5713 5714 5715 5716 5717 5718 5719 5719 5720 5721 5722 5723
5742 5741 5740 5739 5739 5739 5738 5738 5737 5737 5736 5736 5735 5734 5733 5732 5731 5730 5729 5727 5726 5725 5724 5722 5720 5718 5716 5714 5713 5711 5710 5709 5708 5707 5707 5706 5706 5706 5705 5705 5705 5705 5705 5705 5706 5706 5707 5708 5708 5709 5710 5710 5711 5711 5712 5713 5714 5715 5715 5716 5717 5718 5720
5738 5738 5737 5736 5736 5736 5735 5735 5734 5734 5733 5733 5732 5732 5731 5730 5728 5727 5726 5725 5724 5723 5722 5720 5719 5717 5715 5713 5711 5710 5708 5707 5706 5705 5704 5703 5703 5703 5703 5703 5703 5702 5702 5702 5703 5704 5705 5705 5705 5706 5707 5707 5707 5708 5709 5710 5710 5711 5712 5713 5713 5714 5716
5735 5735 5734 5733 5733 5733 5732 5732 5731 5731 5730 5729 5729 5728 5728 5727 5725 5724 5723 5722 5722 5721 5720 5718 5717 5715 5713 5711 5710 5708 5707 5705 5704 5703 5702 5701 5700 5700 5700 5700 5700 5700 5699 5700 5701 5701 5702 5702 5703 5703 5704 5704 5704 5705 5706 5707 5707 5708 5709 5709 5710 5711 5713
5732 5732 5731 5731 5730 5730 5729 5729 5728 5728 5727 5726 5726 5725 5724 5724 5723 5721 5720 5720 5719 5718 5717 5716 5714 5713 5712 5710 5708 5707 5705 5704 5702 5701 5700 5699 5698 5698 5698 5697 5697 5697 5697 5698 5698 5699 5699 5699 5700 5700 5700 5701 5701 5701 5702 5703 5704 5705 5706 5706 5707 5708 5709
5729 5729 5728 5728 5727 5727 5726 5726 5725 5725 5724 5723 5723 5722 5721 5720 5720 5719 5718 5717 5716 5716 5715 5714 5712 5711 5709 5708 5707 5705 5704 5702 5701 5699 5698 5697 5696 5696 5695 5695 5695 5695 5695 5695 5696 5696 5696 5696 5697 5697 5697 5697 5698 5698 5699 5700 5701 5701 5702 5703 5704 5705 5705
5726 5726 5725 5725 5724 5723 5723 5723 5722 5722 5721 5720 5720 5719 5718 5717 5716 5716 5715 5714 5713 5713 5713 5711 5710 5708 5707 5706 5705 5704 5702 5701 5699 5698 5696 5695 5695 5694 5694 5693 5693 5693 5693 5693 5693 5693 5693 5693 5694 5694 5694 5694 5694 5695 5696 5697 5698 5698 5699 5700 5700 5701 5702
5723 5723 5722 5722 5721 5720 5720 5720 5719 5719 5718 5718 5717 5716 5715 5714 5713 5713 5712 5711 5710 5710 5710 5709 5707 5706 5705 5704 5703 5702 5701 5699 5698 5696 5695 5694 5693 5692 5692 5691 5691 5691 5690 5690 5690 5690 5690 5690 5691 5691 5691 5691 5691 5692 5693 5694 5695 5695 5696 5696 5696 5697 5698
5720 5720 5719 5718 5718 5717 5717 5716 5716 5716 5715 5715 5714 5714 5713 5712 5711 5710 5709 5708 5708 5707 5706 5705 5704 5703 5702 5701 5700 5700 5699 5698 5696 5695 5694 5692 5691 5690 5690 5690 5689 5689 5688 5688 5687 5687 5687 5688 5688 5688 5688 5689 5689 5689 5689 5690 5691 5691 5692 5692 5693 5694 5694
5717 5716 5716 5715 5715 5714 5714 5713 5713 5712 5712 5712 5711 5711 5710 5709 5708 5707 5706 5705 5705 5704 5703 5702 5701 5701 5700 5699 5698 5697 5697 5696 5695 5694 5693 5691 5690 5689 5689 5688 5688 5687 5687 5686 5686 5686 5685 5685 5685 5685 5686 5686 5686 5686 5687 5687 5687 5688 5688 5689 5689 5690 5690
5713 5713 5712 5712 5712 5711 5710 5710 5710 5709 5709 5709 5708 5708 5707 5706 5706 5705 5704 5703 5702 5701 5701 5700 5699 5698 5697 5696 5696 5695 5694 5693 5693 5692 5692 5690 5689 5688 5687 5687 5686 5686 5685 5685 5684 5684 5684 5683 5683 5683 5684 5684 5684 5684 5684 5684 5684 5684 5685 5685 5686 5686 5686
5710 5709 5709 5709 5708 5708 5707 5707 5707 5706 5706 5706 5705 5705 5704 5704 5703 5702 5701 5701 5700 5699 5698 5697 5697 5696 5695 5694 5693 5692 5692 5691 5691 5690 5690 5689 5688 5687 5686 5685 5685 5684 5684 5683 5683 5683 5682 5682 5681 5681 5682 5682 5682 5682 5682 5681 5681 5681 5681 5681 5682 5682 5682
5707 5706 5706 5706 5705 5705 5704 5704 5703 5703 5702 5702 5702 5701 5701 5700 5700 5699 5698 5698 5697 5696 5696 5695 5694 5693 5692 5692 5691 5690 5689 5689 5688 5688 5687 5687 5686 5685 5685 5684 5683 5683 5682 5682 5682 5681 5681 5680 5680 5680 5680 5680 5680 5680 5680 5679 5679 5679 5679 5679 5679 5679 5679
5704 5703 5703 5703 5702 5702 5701 5701 5700 5699 5699 5698 5698 5697 5697 5696 5696 5696 5695 5695 5694 5693 5693 5692 5692 5691 5690 5689 5689 5688 5687 5686 5686 5685 5685 5684 5684 5683 5683 5682 5681 5681 5680 5680 5680 5680 5679 5679 5679 5678 5678 5678 5678 5678 5677 5677 5677 5677 5677 5676 5676 5676 5676
5701 5701 5700 5699 5699 5698 5698 5697 5697 5696 5696 5695 5695 5694 5694 5693 5693 5692 5692 5691 5691 5690 5690 5689 5689 5688 5688 5687 5686 5685 5685 5684 5683 5683 5682 5682 5681 5681 5681 5680 5680 5679 5678 5678 5677 5677 5677 5677 5676 5676 5676 5675 5675 5675 5675 5674 5674 5674 5674 5674 5673 5673 5673
Wind_Speed
23 24 24 24 24 25 25 24 23 23 23 23 24 25 26 27 29 30 31 32 31 31 31 31 30 30 31 31 30 29 29 29 29 28 26 26 25 25 25 25 27 27 26 26 27 29 31 32 32 31 29 27 26 25 26 24 22 20 20 21 20 20 19
23 24 24 24 24 25 25 24 24 23 24 24 25 25 26 27 29 30 31 31 32 33 34 35 35 35 34 34 32 31 30 29 28 28 28 27 26 25 25 25 27 28 27 27 29 30 29 30 31 30 30 29 27 27 27 25 23 21 21 21 21 20 20
24 24 24 24 24 25 25 25 24 23 24 25 26 26 27 28 29 30 31 31 32 33 35 37 38 38 38 36 34 32 31 29 29 28 28 28 26 25 26 26 27 28 27 28 29 30 29 29 31 32 31 29 29 29 28 26 23 22 22 21 21 21 20
25 25 25 24 24 25 25 25 24 23 24 25 26 27 28 29 30 31 31 31 32 33 34 36 38 39 39 38 35 33 31 30 29 29 28 28 26 25 26 27 27 28 29 30 30 30 31 31 32 33 32 31 30 29 27 26 24 22 22 22 21 21 21
27 26 26 25 25 25 25 25 24 24 24 24 26 27 28 30 31 32 32 31 31 32 33 35 37 38 38 37 35 33 31 30 29 28 28 27 26 26 26 28 29 29 30 32 33 32 32 32 33 33 34 32 30 29 28 26 24 23 23 23 22 22 21
27 27 26 26 26 26 25 26 25 25 24 24 26 27 29 30 32 32 32 32 32 32 34 36 37 37 36 35 34 33 31 29 28 27 27 27 27 26 27 30 30 28 28 31 32 33 34 33 32 32 32 31 28 28 28 26 25 24 23 23 23 22 22
27 27 27 27 27 26 26 26 26 25 25 25 26 27 29 30 31 32 32 31 32 33 34 36 37 36 34 33 33 32 30 28 27 27 27 28 27 26 27 30 29 25 25 28 30 32 35 34 33 32 31 30 28 28 28 27 26 25 24 25 24 23 23
28 27 27 27 27 27 27 26 26 26 25 26 27 28 29 30 31 31 31 31 32 33 34 36 35 34 32 32 32 30 28 26 25 25 26 27 27 26 26 27 29 27 26 28 27 30 34 35 34 33 32 31 29 29 28 28 27 26 26 26 25 24 23
28 27 27 27 28 27 27 26 26 26 25 25 26 27 28 29 30 30 30 31 32 32 34 35 34 32 31 30 28 26 25 24 23 23 23 25 26 25 24 25 28 28 27 28 28 29 33 36 36 34 32 32 30 30 29 28 28 27 27 27 26 26 25
29 28 28 28 28 27 27 26 26 26 25 25 26 26 27 28 29 30 30 30 32 32 33 34 32 30 28 27 24 23 22 21 20 21 21 22 23 23 23 23 25 26 28 30 29 30 32 34 35 34 33 32 31 31 30 29 29 29 28 27 27 28 27
29 29 29 29 28 27 27 26 26 26 25 25 25 26 26 27 28 29 29 30 31 32 32 33 31 27 26 25 22 20 19 18 18 19 19 18 19 21 21 22 22 21 27 31 29 29 30 31 33 33 33 32 31 31 30 30 32 31 28 27 28 29 29
30 30 30 29 28 27 27 27 26 26 25 25 25 25 25 26 27 28 28 29 30 31 32 32 30 26 24 23 21 18 16 15 15 16 16 15 17 19 19 20 20 19 22 28 29 28 29 30 31 32 32 32 32 32 31 32 33 31 28 27 29 31 29
31 31 31 30 29 28 27 27 26 25 25 25 25 25 25 25 26 26 27 28 29 30 31 31 28 24 23 22 19 15 13 13 13 13 14 14 15 18 18 18 19 18 19 23 27 29 30 31 31 31 31 32 33 32 31 31 31 30 28 28 31 32 29
32 32 31 30 29 28 27 27 26 25 24 24 24 24 24 24 25 25 27 27 27 29 30 29 27 23 22 21 18 13 11 11 12 12 13 14 15 17 18 17 17 18 19 20 23 27 30 31 30 30 31 32 32 32 31 31 30 29 29 30 32 32 29
33 32 31 30 30 29 28 27 26 25 24 23 23 23 23 23 24 25 26 26 26 27 28 28 26 22 20 20 17 12 9 9 11 12 13 14 15 16 17 17 17 18 20 21 22 24 27 29 29 30 30 31 32 32 31 31 31 30 30 30 31 32 29
33 32 31 30 30 29 28 26 26 24 23 22 22 22 22 23 24 24 25 25 25 25 26 26 25 22 19 17 15 10 8 9 11 12 13 14 15 16 16 17 18 19 20 21 22 23 25 27 28 29 30 31 32 31 31 32 31 30 30 30 31 31 30
33 32 30 30 30 28 27 26 25 23 22 21 21 21 22 22 23 24 24 25 24 24 24 25 25 22 19 16 14 12 12 14 15 14 14 16 17 17 17 18 18 19 21 22 23 23 24 26 27 28 29 31 32 32 32 32 31 30 30 31 32 32 30
32 31 30 30 29 28 26 25 24 23 22 22 22 21 21 22 22 23 23 23 23 23 23 23 24 23 20 17 16 17 18 18 17 16 15 16 17 17 18 18 18 19 21 23 23 24 24 25 26 27 28 30 32 32 32 32 31 30 31 32 32 32 30
32 31 30 30 29 27 26 25 24 23 22 22 21 21 21 21 21 22 22 22 22 22 22 22 22 23 21 19 17 19 20 20 19 18 16 16 17 17 18 19 19 19 20 22 23 23 22 22 24 26 27 28 29 30 30 31 31 31 31 31 32 32 32
31 30 30 29 28 27 26 25 24 22 21 21 20 20 20 20 20 21 21 22 22 21 21 21 21 22 22 21 19 18 19 20 19 19 17 17 17 17 18 19 19 19 20 22 23 23 23 23 24 26 27 27 28 30 31 31 31 30 30 31 32 33 33
30 30 29 28 27 26 25 24 23 21 21 20 19 19 19 19 19 20 20 21 21 21 21 21 21 21 22 22 21 19 17 18 19 18 18 18 18 18 18 18 18 19 21 23 23 24 25 25 25 26 26 28 29 30 31 30 30 30 30 31 32 34 34
30 29 28 27 26 26 25 24 22 21 20 19 18 18 19 19 19 19 19 19 19 20 20 21 21 21 22 22 20 18 16 16 18 19 18 18 18 19 18 18 18 19 20 21 22 23 24 25 26 27 27 29 30 30 31 30 30 31 31 32 34 35 34
30 28 27 26 25 25 24 23 22 21 19 18 18 18 18 19 18 18 18 18 18 19 20 20 21 21 21 20 18 17 16 16 17 18 19 20 19 19 19 18 18 18 19 19 21 22 23 24 26 27 28 29 30 31 31 31 31 31 32 33 34 34 34
29 28 27 25 24 24 23 22 21 20 19 18 18 18 19 19 18 18 17 17 17 18 19 20 20 20 20 19 18 17 16 16 16 18 19 21 21 21 20 20 19 19 19 20 21 22 23 24 25 27 27 28 29 30 30 31 31 31 31 32 33 33 33
29 27 26 25 24 23 22 21 20 20 19 19 19 19 19 19 19 18 17 17 17 17 18 19 20 20 19 20 19 18 16 16 16 17 18 20 21 22 22 21 21 21 21 21 21 21 21 22 24 25 26 27 29 30 30 30 30 30 30 30 31 32 31
28 26 25 24 23 22 21 20 20 20 20 20 20 20 19 19 19 19 18 18 18 18 18 19 20 20 20 21 20 18 16 16 17 17 18 18 19 20 20 20 20 20 20 20 21 21 21 22 23 23 25 26 28 29 30 30 29 29 28 28 29 31 31
26 26 25 24 24 23 22 21 21 21 21 21 21 21 20 19 19 19 19 19 18 18 19 20 21 21 20 20 19 17 17 18 18 18 18 17 16 17 19 20 19 19 19 19 19 20 21 22 23 24 24 25 26 28 29 29 28 27 26 27 28 29 29
25 25 25 25 24 23 23 22 22 22 22 22 22 22 21 20 19 20 20 20 19 19 19 20 21 21 20 19 18 18 18 18 17 17 16 15 15 16 17 19 19 19 19 18 19 20 21 21 22 22 22 23 25 25 26 26 26 25 25 26 27 27 29
25 25 25 25 24 24 23 23 22 22 22 22 21 21 21 20 20 20 20 20 20 19 19 19 20 20 20 20 19 19 19 18 17 16 15 15 16 17 17 17 17 17 18 18 18 19 20 19 19 20 21 23 24 24 23 24 24 25 26 27 27 28 29
27 26 26 25 25 24 23 23 21 21 20 20 20 20 20 21 21 21 21 21 20 20 19 19 19 20 20 19 19 19 19 18 17 16 15 15 16 17 18 18 17 16 17 17 18 18 19 19 19 19 21 22 22 21 22 24 25 26 27 28 29 30 30
28 27 26 25 25 24 23 22 20 20 19 19 19 19 20 20 21 22 21 21 20 19 18 19 19 19 19 19 19 18 18 18 18 17 17 16 15 15 17 18 18 18 18 19 19 19 19 20 20 21 21 20 19 18 20 22 24 26 27 28 28 29 29
28 27 25 25 24 24 23 22 21 20 20 19 19 20 20 20 21 21 21 20 19 18 18 18 18 18 18 18 19 19 18 18 18 18 18 18 17 16 16 17 18 19 19 19 20 20 19 18 19 20 20 20 20 20 20 20 23 25 27 28 27 26 27
26 25 25 24 24 23 23 22 22 22 22 22 22 22 22 22 21 21 20 19 18 18 18 18 18 18 18 18 19 19 19 19 19 18 18 18 19 18 18 17 16 17 17 15 16 17 17 16 17 17 18 19 21 23 23 24 26 27 27 27 25 23 24
24 24 24 24 24 23 23 23 23 23 23 23 23 24 23 23 23 22 21 20 20 19 19 19 20 20 20 20 20 20 20 20 20 19 19 19 19 19 19 19 18 18 17 16 14 15 16 17 17 18 19 20 21 23 24 26 28 30 30 29 27 25 24
23 23 24 24 24 24 24 24 24 24 25 26 25 25 24 24 23 23 22 22 21 21 21 21 21 21 22 22 21 21 21 21 21 20 20 20 20 20 20 21 21 20 20 18 16 15 16 17 17 18 19 21 22 23 24 24 27 30 32 32 31 30 29
23 23 24 24 24 24 24 25 25 26 27 26 25 23 21 21 21 21 22 22 22 23 23 22 22 22 22 23 23 22 22 22 22 22 21 21 21 21 21 21 21 21 21 20 18 17 18 19 19 19 20 21 21 23 24 25 26 28 30 31 31 31 31
24 23 23 24 24 24 25 25 26 25 23 21 19 18 17 17 17 18 19 20 20 21 21 21 21 21 22 22 23 23 22 22 22 22 22 21 21 22 22 21 21 22 22 22 22 21 22 22 23 24 25 25 24 23 24 25 26 27 28 30 30 31 32
Wind_Direction
291 293 292 291 289 287 286 285 287 290 295 301 306 310 315 317 318 319 320 319 318 315 312 309 308 306 304 301 297 292 286 281 277 273 271 267 261 257 258 255 250 246 242 239 240 242 244 241 234 231 233 234 236 238 240 240 238 237 239 240 238 237 241
293 294 294 292 289 287 286 286 288 291 296 301 306 311 315 317 317 318 319 319 317 315 313 311 310 309 307 303 298 293 287 282 276 271 268 267 261 256 257 256 250 248 243 237 239 243 243 238 230 228 230 231 231 234 238 238 236 236 238 239 238 237 239
292 293 293 291 289 286 285 285 287 291 296 302 307 311 314 316 316 317 318 318 317 314 312 311 310 309 307 303 299 295 290 282 275 269 264 264 261 255 256 256 250 246 241 236 239 244 243 238 231 228 229 230 228 230 233 235 234 234 236 238 238 238 240
290 292 293 292 290 288 286 285 286 291 297 302 307 311 313 315 315 316 317 318 316 313 311 310 310 309 306 302 298 294 290 281 274 269 263 259 257 252 254 256 253 248 242 235 235 239 240 238 233 229 228 228 227 228 231 233 233 233 234 235 236 238 241
290 294 296 296 294 293 291 290 290 293 298 303 307 310 312 314 316 317 318 318 316 313 312 311 310 308 305 301 297 293 288 280 272 269 264 258 254 251 253 255 254 251 245 235 230 232 236 235 231 228 226 226 226 227 230 231 232 232 232 232 232 235 240
292 295 298 299 298 297 295 293 293 294 298 303 307 309 312 315 317 319 320 319 317 316 315 313 310 307 303 299 295 290 286 279 269 266 262 255 253 252 252 254 255 255 247 236 228 228 232 232 229 227 226 226 228 229 230 230 231 233 234 234 233 235 239
291 296 299 300 299 298 296 295 294 296 300 304 307 309 313 317 319 320 320 320 319 319 317 314 311 307 302 298 294 288 283 275 266 264 260 255 254 254 254 255 257 258 245 233 229 228 230 228 226 226 225 225 227 230 230 230 230 232 233 235 236 237 239
291 296 299 300 300 299 298 297 297 299 303 306 308 311 314 318 319 320 321 321 321 321 318 315 312 308 303 300 296 288 280 270 262 261 260 258 257 256 257 257 260 259 242 228 229 231 228 225 223 224 223 223 226 229 231 231 230 230 231 234 237 239 239
293 298 301 302 301 300 299 299 299 301 304 307 310 312 315 318 320 321 322 322 323 323 320 318 315 310 306 304 298 289 280 270 263 260 257 256 255 255 258 260 264 262 240 223 225 227 224 221 221 222 223 224 227 230 232 232 230 230 231 234 237 237 238
293 298 302 302 301 300 298 298 299 301 305 308 310 313 316 319 321 323 323 322 323 324 323 321 317 313 309 306 299 289 281 272 264 259 255 253 253 255 259 262 266 258 232 219 222 222 219 219 221 223 224 226 227 230 231 231 231 232 233 234 236 237 237
293 297 301 302 301 300 298 297 299 302 305 306 309 314 317 320 321 323 322 321 322 325 326 324 321 316 312 308 300 291 283 273 263 257 253 252 252 255 260 265 269 256 227 217 221 222 219 220 222 223 225 226 228 229 230 231 232 234 235 236 239 241 240
291 295 298 301 302 301 299 299 300 302 304 306 310 314 317 319 321 323 322 321 323 327 328 327 325 320 315 311 302 293 286 275 264 255 251 253 254 256 262 267 269 260 233 220 222 224 223 223 225 226 227 229 230 230 229 232 234 235 235 237 241 243 242
289 293 298 302 304 302 300 300 300 301 304 307 311 314 317 320 321 322 322 322 324 328 330 330 329 324 318 314 304 295 289 276 263 253 249 253 255 256 263 268 267 262 246 229 223 224 226 226 226 227 229 232 233 231 230 232 235 235 234 237 241 244 243
289 293 298 302 303 302 299 299 300 301 304 308 311 314 316 319 320 322 323 322 325 330 332 332 332 326 320 316 306 295 289 276 263 255 249 249 253 254 258 265 267 261 254 244 231 224 225 227 227 228 230 233 235 234 232 232 232 233 234 236 240 243 243
289 292 297 301 303 301 299 298 299 301 305 308 310 313 315 317 319 321 323 323 326 330 332 333 334 328 322 317 307 296 292 283 270 262 256 252 252 253 254 260 267 265 256 250 242 233 230 230 230 231 233 235 237 237 235 232 230 231 233 235 239 243 243
289 292 297 301 303 302 300 299 300 301 304 306 308 311 314 316 319 321 324 324 326 329 331 334 334 330 322 315 306 296 294 296 287 276 267 261 257 255 257 261 266 267 259 250 247 243 239 237 234 233 234 236 238 239 237 234 232 234 236 237 239 243 243
289 292 296 300 303 302 300 299 299 300 302 304 307 310 313 316 320 322 324 325 325 326 329 333 334 331 323 312 299 290 292 297 296 287 273 265 263 260 259 260 261 260 255 249 245 244 244 242 239 236 236 237 239 239 238 237 237 238 240 240 240 242 244
289 291 296 301 303 302 300 298 298 299 301 303 307 311 314 317 320 322 324 324 323 323 325 329 332 331 326 313 295 287 287 288 290 288 275 264 263 262 259 258 255 252 250 247 245 244 244 244 241 239 240 241 241 239 239 240 240 242 244 241 238 239 242
290 292 297 302 303 301 299 297 297 298 300 304 308 311 314 317 320 321 322 322 321 320 322 325 327 329 328 319 304 292 288 286 284 284 276 265 263 261 258 257 255 252 250 248 247 246 245 242 239 239 240 241 239 237 237 239 242 244 245 242 238 238 241
291 295 299 302 302 300 298 296 297 298 300 304 307 310 313 315 317 319 320 320 319 318 319 321 322 325 326 322 313 302 293 289 285 281 274 268 267 265 261 258 254 249 247 247 247 246 243 239 238 239 240 242 242 241 242 243 245 247 247 245 243 241 242
293 296 300 302 301 299 297 296 296 298 300 302 305 308 311 312 314 316 318 318 318 317 317 318 320 321 322 322 319 309 297 289 284 280 275 269 267 266 264 260 256 251 248 248 248 247 245 241 240 241 243 244 246 247 248 248 248 250 250 248 246 243 243
294 297 300 301 299 297 296 295 295 296 298 300 304 306 308 310 311 314 315 316 316 316 317 318 321 322 321 321 320 313 301 290 283 278 274 269 266 266 266 264 261 257 253 250 248 248 248 245 243 244 245 246 247 249 250 250 250 251 251 250 248 245 245
296 298 299 298 297 295 294 294 294 296 298 300 303 306 307 308 308 309 310 312 314 316 318 321 324 327 325 323 322 316 303 293 287 280 274 271 266 264 265 264 262 259 256 253 251 250 250 250 248 247 247 249 250 250 252 252 252 252 252 252 250 247 245
297 298 298 297 296 295 294 294 295 296 298 300 303 305 306 305 303 303 304 307 311 315 319 322 325 330 329 324 321 318 309 297 290 284 277 273 268 265 265 264 261 259 256 254 254 254 253 254 253 251 250 251 252 251 251 253 254 253 253 252 250 248 246
297 296 296 295 295 294 295 295 296 296 297 298 301 302 303 301 300 300 300 301 306 312 317 319 322 326 328 323 317 316 315 309 299 290 281 274 270 268 267 266 264 261 258 255 255 256 256 257 257 255 253 252 252 251 251 252 254 253 252 250 248 246 246
296 295 294 293 293 293 294 294 295 295 295 297 299 299 300 298 297 296 296 297 301 307 312 314 317 321 324 324 318 313 315 318 313 304 291 279 273 271 270 268 265 262 260 258 257 257 257 257 259 259 258 256 255 254 252 251 251 251 250 250 248 246 245
293 293 292 292 291 291 291 291 292 293 294 296 297 297 297 295 293 293 293 293 296 302 307 310 313 315 318 321 317 311 312 316 319 315 304 289 279 275 271 268 264 261 261 260 260 259 257 256 256 257 258 256 256 257 253 249 248 249 250 250 249 246 245
291 290 290 290 290 289 289 289 290 292 294 295 296 296 295 293 291 291 292 293 293 296 301 306 309 310 311 313 310 307 309 314 317 319 314 300 287 281 277 274 270 266 263 262 262 262 260 259 257 255 256 257 257 256 252 248 248 249 250 250 248 245 243
289 289 289 288 289 289 289 289 290 292 294 296 296 295 294 292 291 291 292 293 294 294 297 300 303 304 305 307 306 304 307 311 314 315 314 307 297 290 285 282 279 274 269 265 264 262 261 260 258 257 257 257 258 255 250 249 250 250 250 249 245 243 241
288 288 288 288 288 288 288 289 290 291 294 296 296 295 293 291 290 291 292 293 294 294 295 296 296 298 300 302 303 302 304 308 310 311 309 307 302 294 287 283 283 283 277 269 263 260 257 255 254 256 256 255 257 257 252 248 248 248 248 247 244 241 240
288 287 287 287 287 287 287 287 288 290 292 295 296 296 294 292 291 292 293 294 294 295 296 296 295 295 297 299 301 301 302 303 306 308 307 304 301 296 290 283 281 280 278 273 266 261 259 257 255 254 252 251 253 256 251 246 243 243 243 243 242 240 239
286 286 286 285 285 285 285 285 286 288 289 291 293 295 296 295 293 293 293 293 295 297 299 299 298 298 298 299 300 300 300 301 302 304 306 303 300 298 295 290 285 282 277 269 261 256 256 257 255 253 251 249 249 250 248 244 240 239 239 240 240 242 241
284 284 284 283 282 282 283 285 286 287 288 289 289 290 293 295 295 293 290 289 292 297 301 302 302 302 301 301 300 300 300 300 299 299 301 301 301 298 296 295 295 292 286 275 263 257 255 257 258 257 257 256 252 249 248 246 242 239 238 238 237 239 242
282 283 283 282 281 281 283 285 288 289 290 289 289 289 289 290 292 291 289 287 287 291 296 299 300 300 300 299 299 299 298 298 297 297 297 298 299 298 297 295 294 292 292 293 289 280 270 264 262 264 264 262 257 253 251 249 245 241 239 236 233 231 233
282 284 284 282 281 281 283 286 288 291 291 291 291 290 289 287 287 286 286 285 285 287 289 291 292 293 294 294 294 294 294 294 293 293 294 294 295 296 296 296 295 293 293 294 294 291 282 270 261 260 261 258 254 252 251 249 247 244 241 239 238 235 233
284 287 286 284 282 281 283 286 289 291 293 293 293 291 289 287 285 284 283 283 284 285 286 286 286 285 286 287 288 288 289 289 290 290 290 290 290 290 291 291 292 292 292 291 288 285 281 272 264 264 267 267 262 257 254 254 255 252 247 244 245 245 244
286 288 287 285 283 283 284 287 290 292 292 292 292 291 291 289 287 286 285 285 285 285 286 285 284 284 283 283 284 285 285 286 286 286 286 286 285 285 286 286 286 286 287 287 286 283 279 275 272 273 275 276 274 270 265 264 265 262 256 253 253 255 256